AFR6721 MMSM-MMGL

Flight info

Callsign AFR6721
Flight time 0h 47m
Altitude 31000
Route OVAGO2F OVAGO UT123 IGSON IGSON1B
Aircraft B77L/H-SDE2E3FGHIJ3J5J6M1M2P2RWXYZ/LD1B1

Departure

Time 2026-04-20 13:05
Airport Felipe Ángeles International Airport (MMSM)

Arrival

Time 2026-04-20 13:52
Airport Guadalajara International Airport (MMGL)
Time Latitude Longitude Altitude Speed Heading
2026-04-20 12:35 19.75429 -99.00806 7381 ft 0 kts 140°
2026-04-20 12:54 19.75436 -99.00813 7381 ft 4 kts 140°
2026-04-20 12:54 19.75457 -99.00831 7380 ft 4 kts 140°
2026-04-20 12:54 19.75477 -99.00849 7379 ft 2 kts 140°
2026-04-20 12:55 19.75495 -99.00863 7379 ft 4 kts 167°
2026-04-20 12:55 19.75514 -99.00863 7381 ft 4 kts 213°
2026-04-20 12:55 19.75534 -99.00844 7381 ft 4 kts 230°
2026-04-20 12:55 19.75542 -99.00834 7379 ft 1 kts 229°
2026-04-20 12:56 19.75543 -99.00833 7379 ft 0 kts 229°
2026-04-20 12:57 19.75539 -99.00838 7380 ft 3 kts 229°
2026-04-20 12:58 19.75488 -99.00899 7381 ft 14 kts 229°
2026-04-20 12:58 19.75451 -99.00986 7381 ft 14 kts 289°
2026-04-20 12:58 19.75447 -99.01079 7381 ft 14 kts 234°
2026-04-20 12:58 19.75366 -99.01181 7381 ft 26 kts 229°
2026-04-20 12:59 19.75234 -99.01340 7381 ft 29 kts 229°
2026-04-20 12:59 19.75102 -99.01503 7382 ft 29 kts 229°
2026-04-20 12:59 19.74971 -99.01665 7382 ft 29 kts 229°
2026-04-20 12:59 19.74838 -99.01826 7382 ft 29 kts 229°
2026-04-20 13:00 19.74705 -99.01988 7381 ft 29 kts 229°
2026-04-20 13:00 19.74572 -99.02149 7380 ft 29 kts 229°
2026-04-20 13:00 19.74440 -99.02311 7381 ft 29 kts 229°
2026-04-20 13:00 19.74308 -99.02472 7382 ft 29 kts 229°
2026-04-20 13:01 19.74175 -99.02634 7382 ft 29 kts 229°
2026-04-20 13:01 19.74044 -99.02796 7381 ft 29 kts 229°
2026-04-20 13:01 19.73912 -99.02957 7381 ft 29 kts 229°
2026-04-20 13:01 19.73780 -99.03119 7381 ft 29 kts 229°
2026-04-20 13:02 19.73647 -99.03281 7381 ft 29 kts 229°
2026-04-20 13:02 19.73515 -99.03443 7381 ft 29 kts 229°
2026-04-20 13:02 19.73382 -99.03603 7382 ft 29 kts 229°
2026-04-20 13:02 19.73274 -99.03735 7381 ft 14 kts 230°
2026-04-20 13:03 19.73272 -99.03827 7381 ft 14 kts 312°
2026-04-20 13:03 19.73349 -99.03895 7381 ft 14 kts 319°
2026-04-20 13:03 19.73410 -99.03943 7380 ft 8 kts 345°
2026-04-20 13:03 19.73462 -99.03903 7380 ft 16 kts 49°
2026-04-20 13:04 19.73627 -99.03702 7381 ft 64 kts 49°
2026-04-20 13:04 19.74054 -99.03180 7380 ft 121 kts 49°
2026-04-20 13:04 19.74717 -99.02368 7380 ft 168 kts 49°
2026-04-20 13:04 19.75559 -99.01333 7410 ft 198 kts 49°
2026-04-20 13:05 19.76458 -99.00224 7832 ft 199 kts 49°
2026-04-20 13:05 19.77367 -98.99115 8326 ft 201 kts 48°
2026-04-20 13:05 19.78298 -98.97993 8663 ft 209 kts 48°
2026-04-20 13:05 19.79293 -98.96769 8818 ft 224 kts 49°
2026-04-20 13:06 19.80332 -98.95455 8993 ft 243 kts 55°
2026-04-20 13:06 19.81093 -98.93810 9304 ft 254 kts 76°
2026-04-20 13:06 19.81263 -98.91911 9753 ft 263 kts 95°
2026-04-20 13:06 19.80882 -98.90040 10333 ft 267 kts 114°
2026-04-20 13:07 19.79847 -98.88395 10848 ft 273 kts 136°
2026-04-20 13:07 19.78277 -98.87244 11390 ft 279 kts 156°
2026-04-20 13:07 19.76386 -98.86736 11986 ft 283 kts 178°
2026-04-20 13:07 19.74430 -98.86986 12655 ft 286 kts 200°
2026-04-20 13:08 19.72684 -98.87988 13349 ft 288 kts 223°
2026-04-20 13:08 19.71404 -98.89604 14013 ft 288 kts 240°
2026-04-20 13:08 19.70307 -98.91415 14406 ft 304 kts 238°
2026-04-20 13:08 19.69058 -98.93356 14581 ft 328 kts 237°
2026-04-20 13:09 19.67706 -98.95414 14749 ft 352 kts 237°
2026-04-20 13:09 19.66248 -98.97618 14922 ft 376 kts 236°
2026-04-20 13:09 19.64700 -98.99953 15123 ft 396 kts 236°
2026-04-20 13:09 19.63096 -99.02369 15606 ft 406 kts 236°
2026-04-20 13:10 19.61470 -99.04818 16198 ft 411 kts 236°
2026-04-20 13:10 19.59847 -99.07325 16899 ft 414 kts 238°
2026-04-20 13:10 19.58333 -99.09931 17609 ft 416 kts 240°
2026-04-20 13:10 19.56841 -99.12566 18299 ft 419 kts 239°
2026-04-20 13:11 19.55325 -99.15230 18907 ft 423 kts 241°
2026-04-20 13:11 19.54035 -99.18033 19444 ft 426 kts 248°
2026-04-20 13:11 19.52965 -99.20961 20003 ft 428 kts 250°
2026-04-20 13:11 19.51942 -99.23935 20596 ft 430 kts 250°
2026-04-20 13:12 19.50891 -99.26908 21183 ft 432 kts 250°
2026-04-20 13:12 19.49792 -99.29878 21744 ft 434 kts 249°
2026-04-20 13:12 19.48662 -99.32861 22267 ft 437 kts 249°
2026-04-20 13:12 19.47521 -99.35856 22847 ft 440 kts 249°
2026-04-20 13:13 19.46950 -99.37356 23154 ft 441 kts 249°
2026-04-20 13:13 19.45800 -99.40381 23724 ft 444 kts 249°
2026-04-20 13:13 19.44644 -99.43426 24245 ft 447 kts 249°
2026-04-20 13:13 19.43482 -99.46488 24735 ft 448 kts 249°
2026-04-20 13:14 19.42317 -99.49553 25246 ft 449 kts 249°
2026-04-20 13:14 19.41148 -99.52627 25601 ft 453 kts 249°
2026-04-20 13:14 19.39965 -99.55735 26031 ft 454 kts 249°
2026-04-20 13:14 19.38782 -99.58842 26550 ft 455 kts 249°
2026-04-20 13:15 19.37604 -99.61948 27018 ft 455 kts 249°
2026-04-20 13:15 19.36440 -99.65070 27484 ft 457 kts 249°
2026-04-20 13:15 19.35276 -99.68215 27898 ft 459 kts 249°
2026-04-20 13:15 19.34110 -99.71363 28290 ft 461 kts 249°
2026-04-20 13:16 19.32936 -99.74524 28670 ft 463 kts 249°
2026-04-20 13:16 19.31754 -99.77699 29031 ft 464 kts 249°
2026-04-20 13:16 19.30567 -99.80881 29460 ft 464 kts 249°
2026-04-20 13:16 19.29383 -99.84051 30007 ft 461 kts 249°
2026-04-20 13:17 19.28208 -99.87196 30575 ft 458 kts 249°
2026-04-20 13:17 19.27039 -99.90324 31048 ft 456 kts 249°
2026-04-20 13:17 19.25872 -99.93442 31450 ft 456 kts 249°
2026-04-20 13:17 19.24704 -99.96563 31859 ft 456 kts 249°
2026-04-20 13:18 19.23533 -99.99687 32169 ft 458 kts 249°
2026-04-20 13:18 19.21181 -100.05963 32120 ft 457 kts 249°
2026-04-20 13:19 19.19136 -100.12222 32095 ft 454 kts 261°
2026-04-20 13:19 19.18998 -100.15572 32099 ft 458 kts 273°
2026-04-20 13:19 19.19594 -100.18878 32076 ft 460 kts 286°
2026-04-20 13:20 19.21739 -100.25293 32086 ft 464 kts 287°
2026-04-20 13:20 19.23865 -100.31756 32073 ft 466 kts 286°
2026-04-20 13:21 19.25940 -100.38254 32050 ft 466 kts 286°
2026-04-20 13:21 19.27992 -100.44750 32045 ft 464 kts 286°
2026-04-20 13:22 19.30031 -100.51216 32034 ft 462 kts 286°
2026-04-20 13:22 19.32061 -100.57657 32034 ft 460 kts 286°
2026-04-20 13:23 19.34086 -100.64092 32033 ft 460 kts 286°
2026-04-20 13:23 19.36092 -100.70471 32029 ft 460 kts 285°
2026-04-20 13:24 19.38182 -100.76868 32035 ft 460 kts 287°
2026-04-20 13:24 19.40402 -100.83222 32043 ft 461 kts 288°
2026-04-20 13:25 19.42632 -100.89601 32049 ft 462 kts 287°
2026-04-20 13:25 19.44843 -100.96003 32047 ft 463 kts 287°
2026-04-20 13:26 19.47045 -101.02415 32057 ft 463 kts 287°
2026-04-20 13:26 19.49246 -101.08836 32076 ft 464 kts 287°
2026-04-20 13:27 19.51444 -101.15260 32082 ft 464 kts 287°
2026-04-20 13:27 19.53642 -101.21688 32081 ft 463 kts 287°
2026-04-20 13:28 19.55833 -101.28101 32092 ft 463 kts 287°
2026-04-20 13:28 19.56927 -101.31311 31978 ft 462 kts 287°
2026-04-20 13:28 19.58019 -101.34514 31981 ft 462 kts 287°
2026-04-20 13:29 19.60199 -101.40915 31995 ft 461 kts 287°
2026-04-20 13:29 19.62376 -101.47315 31993 ft 461 kts 287°
2026-04-20 13:30 19.64547 -101.53707 32003 ft 461 kts 287°
2026-04-20 13:30 19.66717 -101.60102 32002 ft 460 kts 287°
2026-04-20 13:31 19.68868 -101.66447 31992 ft 448 kts 287°
2026-04-20 13:31 19.69909 -101.69511 31913 ft 437 kts 287°
2026-04-20 13:31 19.70934 -101.72535 31559 ft 432 kts 287°
2026-04-20 13:31 19.71941 -101.75515 31115 ft 428 kts 286°
2026-04-20 13:32 19.72927 -101.78436 30660 ft 424 kts 286°
2026-04-20 13:32 19.73918 -101.81372 30185 ft 422 kts 286°
2026-04-20 13:32 19.74902 -101.84294 29638 ft 419 kts 286°
2026-04-20 13:32 19.75880 -101.87199 29099 ft 417 kts 287°
2026-04-20 13:33 19.76852 -101.90085 28604 ft 414 kts 287°
2026-04-20 13:33 19.77817 -101.92953 28107 ft 411 kts 287°
2026-04-20 13:33 19.78774 -101.95795 27615 ft 408 kts 287°
2026-04-20 13:33 19.79724 -101.98622 27154 ft 405 kts 287°
2026-04-20 13:34 19.80668 -102.01430 26680 ft 403 kts 287°
2026-04-20 13:34 19.81605 -102.04220 26214 ft 400 kts 288°
2026-04-20 13:34 19.82538 -102.06999 25775 ft 398 kts 288°
2026-04-20 13:34 19.83465 -102.09760 25297 ft 396 kts 288°
2026-04-20 13:35 19.84386 -102.12509 24836 ft 395 kts 288°
2026-04-20 13:35 19.85308 -102.15261 24368 ft 394 kts 288°
2026-04-20 13:35 19.86224 -102.17997 23912 ft 393 kts 289°
2026-04-20 13:35 19.87137 -102.20728 23432 ft 392 kts 289°
2026-04-20 13:36 19.88047 -102.23447 22941 ft 390 kts 289°
2026-04-20 13:36 19.88954 -102.26157 22455 ft 387 kts 289°
2026-04-20 13:36 19.89852 -102.28841 22027 ft 384 kts 289°
2026-04-20 13:36 19.90743 -102.31504 21575 ft 382 kts 289°
2026-04-20 13:37 19.91635 -102.34160 21155 ft 380 kts 289°
2026-04-20 13:37 19.92517 -102.36792 20743 ft 378 kts 289°
2026-04-20 13:37 19.93398 -102.39417 20298 ft 376 kts 289°
2026-04-20 13:37 19.94272 -102.42027 19891 ft 375 kts 289°
2026-04-20 13:38 19.95145 -102.44636 19479 ft 374 kts 289°
2026-04-20 13:38 19.96010 -102.47231 19025 ft 367 kts 289°
2026-04-20 13:38 19.96849 -102.49756 18155 ft 360 kts 289°
2026-04-20 13:38 19.97684 -102.52268 16988 ft 360 kts 289°
2026-04-20 13:39 19.98514 -102.54767 16033 ft 357 kts 289°
2026-04-20 13:39 19.99335 -102.57235 15722 ft 352 kts 289°
2026-04-20 13:39 19.99895 -102.58838 15423 ft 347 kts 294°
2026-04-20 13:39 20.01145 -102.60909 15061 ft 345 kts 312°
2026-04-20 13:40 20.02943 -102.62571 14674 ft 343 kts 327°
2026-04-20 13:40 20.05023 -102.63741 14483 ft 333 kts 333°
2026-04-20 13:40 20.07081 -102.64801 14324 ft 323 kts 333°
2026-04-20 13:40 20.09072 -102.65838 14170 ft 314 kts 333°
2026-04-20 13:41 20.10990 -102.66858 14034 ft 304 kts 333°
2026-04-20 13:41 20.12845 -102.67857 13895 ft 293 kts 333°
2026-04-20 13:41 20.14629 -102.68820 13768 ft 282 kts 333°
2026-04-20 13:41 20.16263 -102.69861 13552 ft 270 kts 315°
2026-04-20 13:42 20.17488 -102.71403 13423 ft 279 kts 307°
2026-04-20 13:42 20.19911 -102.74717 12872 ft 283 kts 307°
2026-04-20 13:42 20.21121 -102.76364 12605 ft 281 kts 307°
2026-04-20 13:43 20.22321 -102.77995 12273 ft 278 kts 307°
2026-04-20 13:43 20.23511 -102.79612 11862 ft 278 kts 308°
2026-04-20 13:43 20.24704 -102.81229 11464 ft 277 kts 308°
2026-04-20 13:43 20.25892 -102.82838 11097 ft 276 kts 308°
2026-04-20 13:44 20.27076 -102.84441 10751 ft 274 kts 308°
2026-04-20 13:44 20.28252 -102.86034 10390 ft 273 kts 308°
2026-04-20 13:44 20.29420 -102.87616 10041 ft 271 kts 308°
2026-04-20 13:44 20.30583 -102.89190 9680 ft 270 kts 308°
2026-04-20 13:45 20.31723 -102.90735 9295 ft 269 kts 308°
2026-04-20 13:45 20.32881 -102.92303 8907 ft 268 kts 308°
2026-04-20 13:45 20.34008 -102.93831 8843 ft 256 kts 308°
2026-04-20 13:45 20.35119 -102.95337 8848 ft 262 kts 308°
2026-04-20 13:46 20.36276 -102.96906 8888 ft 270 kts 308°
2026-04-20 13:46 20.37428 -102.98466 8916 ft 272 kts 308°
2026-04-20 13:46 20.38611 -103.00070 8931 ft 271 kts 308°
2026-04-20 13:46 20.39745 -103.01654 8758 ft 273 kts 302°
2026-04-20 13:47 20.40635 -103.03439 8742 ft 266 kts 294°
2026-04-20 13:47 20.41362 -103.05213 8699 ft 264 kts 293°
2026-04-20 13:47 20.42091 -103.07003 8645 ft 259 kts 294°
2026-04-20 13:47 20.42807 -103.08731 8537 ft 252 kts 294°
2026-04-20 13:48 20.43515 -103.10422 8238 ft 246 kts 294°
2026-04-20 13:48 20.44206 -103.12068 7994 ft 241 kts 294°
2026-04-20 13:48 20.44885 -103.13690 7777 ft 239 kts 294°
2026-04-20 13:48 20.45563 -103.15310 7535 ft 239 kts 294°
2026-04-20 13:49 20.46241 -103.16932 7313 ft 237 kts 294°
2026-04-20 13:49 20.46908 -103.18522 7029 ft 233 kts 294°
2026-04-20 13:49 20.47559 -103.20078 6799 ft 225 kts 294°
2026-04-20 13:49 20.48183 -103.21570 6510 ft 213 kts 294°
2026-04-20 13:50 20.48760 -103.22947 6335 ft 196 kts 294°
2026-04-20 13:50 20.49288 -103.24210 6161 ft 176 kts 295°
2026-04-20 13:50 20.49779 -103.25379 5994 ft 173 kts 295°
2026-04-20 13:50 20.50273 -103.26544 5766 ft 172 kts 295°
2026-04-20 13:51 20.50760 -103.27704 5462 ft 170 kts 294°
2026-04-20 13:51 20.51237 -103.28851 5138 ft 168 kts 294°
2026-04-20 13:51 20.51698 -103.29965 5026 ft 154 kts 294°
2026-04-20 13:51 20.52075 -103.30859 5028 ft 106 kts 294°
2026-04-20 13:52 20.52303 -103.31403 5028 ft 54 kts 294°
2026-04-20 13:52 20.52437 -103.31720 5023 ft 45 kts 294°
2026-04-20 13:52 20.52507 -103.31888 5025 ft 17 kts 294°
2026-04-20 13:52 20.52561 -103.31934 5027 ft 11 kts
2026-04-20 13:53 20.52655 -103.31893 5024 ft 14 kts 24°
2026-04-20 13:53 20.52693 -103.31827 5022 ft 12 kts 99°
2026-04-20 13:53 20.52644 -103.31672 5024 ft 27 kts 109°
2026-04-20 13:53 20.52582 -103.31483 5022 ft 27 kts 109°
2026-04-20 13:54 20.52521 -103.31295 5023 ft 27 kts 109°
2026-04-20 13:54 20.52460 -103.31107 5022 ft 27 kts 109°
2026-04-20 13:54 20.52399 -103.30919 5027 ft 27 kts 109°
2026-04-20 13:54 20.52338 -103.30731 5021 ft 27 kts 109°
2026-04-20 13:55 20.52276 -103.30544 5022 ft 25 kts 109°
2026-04-20 13:55 20.52224 -103.30379 5022 ft 23 kts 109°
2026-04-20 13:55 20.52170 -103.30216 5021 ft 23 kts 109°
2026-04-20 13:55 20.52117 -103.30052 5021 ft 23 kts 109°
2026-04-20 13:56 20.52067 -103.29905 5023 ft 12 kts 115°
2026-04-20 13:56 20.52061 -103.29827 5021 ft 12 kts 48°
2026-04-20 13:56 20.52134 -103.29789 5023 ft 12 kts 18°
2026-04-20 13:56 20.52205 -103.29735 5021 ft 14 kts 73°
2026-04-20 13:57 20.52186 -103.29638 5022 ft 14 kts 109°
2026-04-20 13:57 20.52173 -103.29552 5021 ft 6 kts 62°
2026-04-20 13:57 20.52203 -103.29532 5023 ft 5 kts 21°
2026-04-20 13:57 20.52229 -103.29522 5023 ft 2 kts 20°
2026-04-20 13:58 20.52240 -103.29518 5024 ft 0 kts 19°